Content
SEND FEEDBACK

Daily
Averages
Monthly
Summary
Ireland

COBH, IRELAND


Home > Europe > Ireland
Elevation: 135 feet     Latitude: 51 48N     Longitude: 008 15W

WEATHER
 
SELECT A DAY
Number of Records: 305,093;   Date Range: 7/1/96 - 7/11/14
 
SHARE

PRINT THIS DATA

[ ← Previous Day ]
WEATHER ALMANAC - FEBRUARY 5, 2013
[ Next Day → ]
[ °C ]   °F
Weather ElementAverageHighLow
Temperature37.6 °F43 °F (6:00 pm)32 °F (3:00 am)
Dewpoint34.9 °F41 °F (4:00 pm)28.4 °F (12:30 am)
Humidity89.9 %100 % (3:00 am)70 % (12:30 am)
Barometer29.75 in29.89 in (11:30 pm)29.65 in (2:30 pm)
Wind Speed21.2 mph28.8 mph (12:30 am)
Wind Gust62.1 mph (12:30 am)
Weather ElementAverage
Visibility6 mi
Wind DirectionWNW (282.2 °)

Weather ElementTotal
Precipitation---
Heating Degree Days27.5 (Base 65)
Averaged from 51 records on February 5, 2013
WEATHER CONDITIONS BREAKOUT
WIND DIRECTION BREAKOUT
WEATHER BY HOUR - FEBRUARY 5, 2013
[ °C ]   °F
Local TimeTemperatureDewpointHumidityBarometerVisibilityWind DirectionWind SpeedGust SpeedPrecipitationEventsConditions
12:00 AM37.4 °F30.2 °F75 %29.86 in6.2 miWest (270°)25.3 mph40.3 mphRainLight Rain Showers
12:30 AM37.4 °F28.4 °F70 %29.86 in3.7 miWest (280°)28.8 mph62.1 mphRain-SnowLight Rain Showers
1:00 AM33.8 °F32.0 °F93 %29.83 in6.2 miWest (270°)27.6 mph39.1 mphMostly Cloudy
1:30 AM35.6 °F32.0 °F87 %29.83 in6.2 miWest (260°)23.0 mph41.4 mphRain-SnowLight Rain Showers
2:00 AM35.6 °F32.0 °F87 %29.83 in3.1 miWest (280°)19.6 mph32.2 mphSnowLight Snow Showers
2:30 AM33.8 °F32.0 °F93 %29.80 in6.2 miWest (280°)15.0 mphMostly Cloudy
3:00 AM32.0 °F32.0 °F100 %29.80 in2.5 miWest (280°)17.3 mph31.1 mphSnowLight Snow Showers
3:30 AM33.8 °F32.0 °F93 %29.80 in2.2 miWest (270°)16.1 mphSnowLight Snow Showers
4:00 AM32.0 °F32.0 °F100 %29.77 in1.0 miWNW (290°)19.6 mphSnowLight Snow Showers
4:30 AM32.0 °F32.0 °F100 %29.74 in6.2 miWest (270°)15.0 mphScattered Clouds
5:00 AM32.0 °F32.0 °F100 %29.74 in2.5 miWest (280°)24.2 mphSnowLight Snow Showers
5:30 AM32.0 °F32.0 °F100 %29.74 in6.2 miWest (270°)18.4 mphMostly Cloudy
6:00 AM32.0 °F32.0 °F100 %29.74 in6.2 miWest (260°)17.3 mphScattered Clouds
6:00 AM33.0 °F31.0 °F92 %29.77 in12.0 miWest (260°)17.9 mphSnowLight Snow Showers
6:30 AM32.0 °F32.0 °F100 %29.74 in1.6 miWNW (290°)23.0 mphSnowLight Snow Showers
7:00 AM32.0 °F32.0 °F100 %29.74 in1.9 miSSW (200°)13.8 mphSnowLight Snow Showers
7:30 AM32.0 °F32.0 °F100 %29.71 in6.2 miWest (260°)13.8 mphScattered Clouds
8:00 AM32.0 °F32.0 °F100 %29.71 in6.2 miWest (260°)15.0 mphRain-SnowLight Rain
8:30 AM32.0 °F32.0 °F100 %29.74 in3.1 miWest (270°)18.4 mphSnowLight Snow Showers
9:00 AM33.8 °F32.0 °F93 %29.71 in6.2 miWest (280°)15.0 mphSnowLight Snow Showers
9:30 AM35.6 °F32.0 °F87 %29.71 in6.2 miWest (270°)16.1 mphScattered Clouds
10:00 AM35.6 °F33.8 °F93 %29.71 in6.2 miWest (270°)20.7 mphRain-SnowLight Rain Showers
10:30 AM33.8 °F33.8 °F100 %29.71 in6.2 miWest (260°)18.4 mphScattered Clouds
11:00 AM35.6 °F33.8 °F93 %29.71 in6.2 miWest (260°)16.1 mphPartly Cloudy
11:30 AM37.4 °F33.8 °F87 %29.71 in6.2 miWest (270°)13.8 mphPartly Cloudy
12:00 PM39.2 °F33.8 °F81 %29.71 in6.2 miWest (280°)25.3 mphScattered Clouds
12:00 PM39.0 °F35.0 °F78 %29.75 in19.0 miWest (280°)24.6 mphPartly Cloudy
12:30 PM39.2 °F35.6 °F87 %29.68 in6.2 miWest (280°)21.9 mph33.4 mphPartly Cloudy
1:00 PM41.0 °F35.6 °F81 %29.68 in6.2 miWest (280°)25.3 mph39.1 mphMostly Cloudy
1:30 PM39.2 °F37.4 °F93 %29.68 in6.2 miWest (280°)27.6 mph44.9 mphRainLight Rain Showers
2:00 PM37.4 °F37.4 °F100 %29.68 in6.2 miWest (270°)25.3 mph39.1 mphRainLight Rain Showers
2:30 PM41.0 °F39.2 °F93 %29.65 in6.2 miWest (270°)25.3 mph41.4 mphRainLight Rain
3:00 PM41.0 °F39.2 °F93 %29.68 in6.2 miWNW (290°)26.5 mph38.0 mphRainLight Rain Showers
3:30 PM41.0 °F39.2 °F93 %29.68 in6.2 miWNW (300°)25.3 mphMostly Cloudy
4:00 PM41.0 °F41.0 °F100 %29.68 in6.2 miWNW (300°)20.7 mph38.0 mphRainLight Rain Showers
4:30 PM42.8 °F41.0 °F93 %29.68 in6.2 miWNW (300°)26.5 mph38.0 mphRainLight Rain Showers
5:00 PM41.0 °F37.4 °F87 %29.71 in6.2 miNW (310°)23.0 mph35.7 mphRainLight Rain Showers
5:30 PM41.0 °F39.2 °F93 %29.71 in6.2 miWNW (290°)19.6 mphScattered Clouds
6:00 PM42.8 °F39.2 °F87 %29.71 in6.2 miWNW (290°)21.9 mphScattered Clouds
6:00 PM43.0 °F40.0 °F85 %29.73 in12.0 miWNW (290°)22.4 mphRainLight Rain Showers
6:30 PM42.8 °F39.2 °F87 %29.74 in6.2 miWNW (300°)25.3 mph38.0 mphRainLight Rain Showers
7:00 PM42.8 °F39.2 °F87 %29.74 in6.2 miWNW (290°)20.7 mphMostly Cloudy
7:30 PM42.8 °F39.2 °F87 %29.77 in6.2 miWNW (290°)20.7 mphMostly Cloudy
8:00 PM42.8 °F37.4 °F81 %29.77 in6.2 miWNW (290°)20.7 mphPartly Cloudy
8:30 PM42.8 °F37.4 °F81 %29.77 in6.2 miNW (310°)23.0 mphPartly Cloudy
9:00 PM42.8 °F37.4 °F81 %29.80 in6.2 miNW (310°)23.0 mphScattered Clouds
9:30 PM42.8 °F37.4 °F81 %29.80 in6.2 miNW (310°)24.2 mph38.0 mphScattered Clouds
10:00 PM42.8 °F35.6 °F76 %29.83 in6.2 miNW (320°)27.6 mph42.6 mphPartly Cloudy
10:30 PM41.0 °F35.6 °F81 %29.83 in6.2 miNW (320°)23.0 mphPartly Cloudy
11:00 PM41.0 °F33.8 °F76 %29.86 in6.2 miNW (310°)21.9 mphPartly Cloudy
11:30 PM41.0 °F35.6 °F81 %29.89 in6.2 miNW (320°)23.0 mph35.7 mphPartly Cloudy
Hourly data recorded from EICK, located miles away from Cobh, Ireland







STORIES FROM OUR PARTNERS